Regional Weather Roundup
Issued by NWS Northern Indiana

Home | Current Version | Previous Version | Text Only | Print | Product List | Glossary Off
Versions: 1 2 3 4 5 6 7 8 9 10 11 12 13 14 15 16 17 18 19 20 21 22 23 24 25 26 27 28 29 30 31 32 33 34 35 36 37 38 39 40 41 42 43 44 45 46 47 48 49 50

000
ASUS43 KIWX 211810
RWRIWX

KIWX WEATHER ROUNDUP
NATIONAL WEATHER SERVICE NORTHERN INDIANA
200 PM EDT SUN SEP 21 2014

NOTE: "FAIR" INDICATES FEW OR NO CLOUDS BELOW 12,000 FEET WITH NO
SIGNIFICANT WEATHER AND/OR OBSTRUCTIONS TO VISIBILITY.

* THESE STATIONS ARE NOT UNDER NWS QUALITY CONTROL. THEY ALSO MAY NOT
  REPORT WEATHER SUCH AS PRECIPITATION OR FOG.

INZ001>027-211900-
NORTHERN INDIANA

CITY           SKY/WX    TMP DP  RH WIND       PRES   REMARKS
GARY*          PTSUNNY   64  50  59 W12G23    29.92R
VALPARAISO     CLOUDY    63  50  62 NW14G21   29.91R
6HR MIN TEMP:  57; 6HR MAX TEMP:  64;

MICHIGAN CITY* CLOUDY    61  50  67 NW16G26   29.91R
LAPORTE*       CLOUDY    61  51  69 NW16G25   29.90R
6HR MIN TEMP:  57; 6HR MAX TEMP:  61;

KNOX*          CLOUDY    61  49  66 NW14G22   29.90R
6HR MIN TEMP:  58; 6HR MAX TEMP:  69;

SOUTH BEND     CLOUDY    62  52  69 NW20G32   29.86S
6HR MIN TEMP:  59; 6HR MAX TEMP:  63; 6HR PCP: TRACE;

GOSHEN         LGT RAIN N/A N/A N/A W16       29.84R
                                      6HR PCP:  0.02;

MONTICELLO*    MOSUNNY   65  52  61 NW22G28   29.91S
6HR MIN TEMP:  58; 6HR MAX TEMP:  66;

LOGANSPORT*    MOSUNNY   64  50  59 NW14G22   29.90S
ROCHESTER*     PTSUNNY   64  50  59 W17G24    29.89R
WARSAW*        CLOUDY    61  50  67 NW21G30   29.86R
ANGOLA*        PTSUNNY   61  50  67 W9        29.79S
FORT WAYNE     PTSUNNY   62  51  67 W13       29.85R
6HR MIN TEMP:  62; 6HR MAX TEMP:  67;

HUNTINGTON*    CLOUDY    62  50  65 NW12G22   29.86R
6HR MIN TEMP:  62; 6HR MAX TEMP:  66;

PERU/GRISSOM   PTSUNNY   67  53  62 NW23G32   29.88R
6HR MIN TEMP:  60; 6HR MAX TEMP:  67; 6HR PCP:  0.10;

MARION*        PTSUNNY   68  47  46 NW23G31   29.88R
6HR MIN TEMP:  40; 6HR MAX TEMP:  90;


$$
INZ028>050-211900-
CENTRAL INDIANA

CITY           SKY/WX    TMP DP  RH WIND       PRES   REMARKS
LAFAYETTE      PTSUNNY   66  52  60 NW20G30   29.92R
6HR MIN TEMP:  58; 6HR MAX TEMP:  68;

KOKOMO*        CLOUDY    64  48  55 NW22G28   29.89R
6HR MIN TEMP:  61; 6HR MAX TEMP:  70;

MUNCIE*        PTSUNNY   70  48  45 W23G35    29.86R
6HR MIN TEMP:  64; 6HR MAX TEMP:  71;

INDIANAPOLIS   MOSUNNY   73  49  42 W23G32    29.89S
6HR MIN TEMP:  64; 6HR MAX TEMP:  73;


$$
MIZ043>046-050>051-056>058-064>065-071>073-077>080-211900-
SOUTHWEST LOWER MICHIGAN

CITY           SKY/WX    TMP DP  RH WIND       PRES   REMARKS
BATTLE CREEK   LGT RAIN  59  54  83 NW20G32   29.78R
6HR MIN TEMP:  57; 6HR MAX TEMP:  62; 6HR PCP:  0.02;

BENTON HARBOR  PTSUNNY   59  54  83 NW13G25   29.86R
6HR MIN TEMP:  57; 6HR MAX TEMP:  62; 6HR PCP:  0.06;

COLDWATER*     CLOUDY    63  55  77 W17G24    29.77F
6HR MIN TEMP:  59; 6HR MAX TEMP:  64;

HILLSDALE*     CLOUDY    58  57  96 W9        29.76S
HOLLAND        CLOUDY    61  53  75 NW20G36   29.82R
6HR MIN TEMP:  59; 6HR MAX TEMP:  62; 6HR PCP:  0.03;

GRAND RAPIDS   PTSUNNY   62  59  90 NW15G35   29.76R
6HR MIN TEMP:  58; 6HR MAX TEMP:  62; 6HR PCP:  0.02;

KALAMAZOO      LGT RAIN  60  54  80 NW20G29   29.80R
6HR MIN TEMP:  57; 6HR MAX TEMP:  62; 6HR PCP:  0.05;

STURGIS*       CLOUDY    61  55  82 W16G25    29.80R
THREE RIVERS*  CLOUDY    60  56  86 NW22G29   29.81R
6HR MIN TEMP:  58; 6HR MAX TEMP:  62;


$$
OHZ001>008-015>018-024>025-211900-
NORTHWEST OHIO

CITY           SKY/WX    TMP DP  RH WIND       PRES   REMARKS
WAUSEON*       PTSUNNY   64  50  59 W17G28    29.76S
DEFIANCE       CLOUDY   N/A N/A N/A W9G24     29.79R
FINDLAY        MOSUNNY   71  51  49 W25G36    29.76R
6HR MIN TEMP:  67; 6HR MAX TEMP:  73;

TOLEDO EXPRESS CLOUDY    65  49  56 W23       29.75R
6HR MIN TEMP:  64; 6HR MAX TEMP:  69;

TOLEDO METCALF CLOUDY    67  48  50 W22G36    29.75R
6HR MIN TEMP:  66; 6HR MAX TEMP:  70;

LIMA           MOSUNNY   70  50  49 W25G35    29.80R
6HR MIN TEMP:  68; 6HR MAX TEMP:  72;


$$
AND FOR LAKE MICHIGAN COASTAL AND OPEN LAKE BUOY OBSERVATIONS

STATION/POSITION TEMP    WIND        PRES    VSBY  WAVE
                 AIR SEA DIR/SP/G                  HT/PER
                 (F)     (DEG/KT/KT) (MB)    (MI)  (FT/S)
CALUMET HARBOR    64     280/ 11/ 17 1012.1R
MICHIGAN CITY     60     270/ 24/ 28   N/A
SAINT JOSEPH      61     310/ 23/ 29 1012.2S
SOUTH LAKE BUOY   59 62  330/ 27/ 33 1011.3R         7/ 6
4 MI NW BRIDGMAN  61 65  320/ 23/ 33   N/A          10/ 6
MICHIGAN CITY     61 64  310/ 19/ 27   N/A           7/ 6

$$
&&



USA.gov is the U.S. government's official web portal to all federal, state and local government web resources and services.